When you browse on this site, cookies collect data to enhance your experience and personalize the content and advertising you see.
Visit our Privacy Policy to learn more. By continuing to use the site, you agree to this use of cookies and data.
  • Em Portugal
  • Lista de países
  • Para 7 dias
  • Temperatura da água
  • Mapas de satélite
  • Mapa do tempo
  • Widgets de tempo
  • user-avatar
    Iniciar Sessão

    Previsão horária em Vinnitsa

    Hoje, 19 Novembro, Segunda-feira

    Tempo Temperatura Precipitação Vento Pressão Humidade
    00:00 -1°C° 0 mm 1 m/s 740 mmHg 62%
    01:00 -1°C° 0 mm 1 m/s 740 mmHg 62%
    02:00 -1°C° 0 mm 1 m/s 740 mmHg 70%
    03:00 -3°C° 0 mm 2 m/s 740 mmHg 70%
    04:00 -3°C° 0 mm 2 m/s 740 mmHg 71%
    05:00 -3°C° 0 mm 2 m/s 740 mmHg 71%
    06:00 -4°C° 0 mm 3 m/s 740 mmHg 70%
    07:00 -4°C° 0 mm 3 m/s 740 mmHg 69%
    08:00 -4°C° 0 mm 3 m/s 740 mmHg 67%
    09:00 -3°C° 0.1 mm 4 m/s 740 mmHg 67%
    10:00 -3°C° 0.1 mm 4 m/s 740 mmHg 66%
    11:00 -2°C° 0.1 mm 5 m/s 740 mmHg 66%
    12:00 -2°C° 0 mm 5 m/s 740 mmHg 66%
    13:00 -1°C° 0 mm 5 m/s 740 mmHg 66%
    14:00 -2°C° 0 mm 6 m/s 739 mmHg 66%
    15:00 -2°C° 0.1 mm 5 m/s 739 mmHg 68%
    16:00 -2°C° 0.1 mm 5 m/s 739 mmHg 71%
    17:00 -3°C° 0.1 mm 4 m/s 739 mmHg 74%
    18:00 -4°C° 0.2 mm 5 m/s 740 mmHg 75%
    19:00 -4°C° 0.2 mm 5 m/s 740 mmHg 77%
    20:00 -5°C° 0.2 mm 5 m/s 740 mmHg 79%
    21:00 -5°C° 0.3 mm 5 m/s 740 mmHg 81%
    22:00 -5°C° 0.3 mm 5 m/s 740 mmHg 84%
    23:00 -5°C° 0.3 mm 5 m/s 740 mmHg 86%

    Amanhã, 20 Novembro, Terça-feira

    Tempo Temperatura Precipitação Vento Pressão Humidade
    00:00 -5°C° 0.2 mm 5 m/s 740 mmHg 86%
    01:00 -5°C° 0.2 mm 5 m/s 740 mmHg 86%
    02:00 -5°C° 0.2 mm 5 m/s 740 mmHg 87%
    03:00 -6°C° 0 mm 5 m/s 740 mmHg 86%
    04:00 -6°C° 0 mm 5 m/s 740 mmHg 85%
    05:00 -5°C° 0 mm 4 m/s 740 mmHg 85%
    06:00 -5°C° 0 mm 4 m/s 741 mmHg 84%
    07:00 -5°C° 0 mm 4 m/s 741 mmHg 83%
    08:00 -5°C° 0 mm 4 m/s 741 mmHg 83%
    09:00 -5°C° 0 mm 4 m/s 742 mmHg 80%
    10:00 -4°C° 0 mm 4 m/s 742 mmHg 78%
    11:00 -3°C° 0 mm 4 m/s 742 mmHg 75%
    12:00 -2°C° 0 mm 4 m/s 742 mmHg 75%
    13:00 -2°C° 0 mm 4 m/s 742 mmHg 74%
    14:00 -2°C° 0 mm 4 m/s 742 mmHg 74%
    15:00 -3°C° 0 mm 4 m/s 742 mmHg 79%
    16:00 -4°C° 0 mm 3 m/s 742 mmHg 85%
    17:00 -5°C° 0 mm 3 m/s 742 mmHg 90%
    18:00 -5°C° 0 mm 3 m/s 742 mmHg 91%
    19:00 -5°C° 0 mm 3 m/s 742 mmHg 93%
    20:00 -6°C° 0 mm 3 m/s 742 mmHg 94%
    21:00 -6°C° 0 mm 3 m/s 742 mmHg 94%
    22:00 -6°C° 0 mm 3 m/s 743 mmHg 94%
    23:00 -6°C° 0 mm 3 m/s 743 mmHg 94%

    Depois de amanhã, 21 Novembro, Quarta-feira

    Tempo Temperatura Precipitação Vento Pressão Humidade
    00:00 -6°C° 0 mm 3 m/s 743 mmHg 93%
    01:00 -6°C° 0 mm 3 m/s 743 mmHg 92%
    02:00 -5°C° 0 mm 3 m/s 743 mmHg 91%
    03:00 -5°C° 0 mm 3 m/s 742 mmHg 91%
    04:00 -5°C° 0 mm 3 m/s 742 mmHg 91%
    05:00 -5°C° 0 mm 3 m/s 742 mmHg 91%
    06:00 -5°C° 0 mm 3 m/s 742 mmHg 91%
    07:00 -5°C° 0 mm 3 m/s 742 mmHg 91%
    08:00 -6°C° 0 mm 3 m/s 743 mmHg 90%
    09:00 -5°C° 0 mm 3 m/s 743 mmHg 87%
    10:00 -4°C° 0 mm 3 m/s 743 mmHg 84%
    11:00 -3°C° 0 mm 4 m/s 743 mmHg 81%
    12:00 -2°C° 0 mm 3 m/s 743 mmHg 80%
    13:00 -2°C° 0 mm 3 m/s 743 mmHg 79%
    14:00 -1°C° 0 mm 3 m/s 743 mmHg 77%
    15:00 -2°C° 0 mm 3 m/s 743 mmHg 81%
    16:00 -3°C° 0 mm 2 m/s 742 mmHg 84%
    17:00 -4°C° 0 mm 2 m/s 742 mmHg 87%
    18:00 -4°C° 0 mm 2 m/s 743 mmHg 89%
    19:00 -4°C° 0 mm 2 m/s 743 mmHg 90%
    20:00 -5°C° 0 mm 2 m/s 743 mmHg 91%
    21:00 -5°C° 0 mm 2 m/s 743 mmHg 92%
    22:00 -5°C° 0 mm 2 m/s 743 mmHg 92%
    23:00 -5°C° 0 mm 2 m/s 744 mmHg 92%

    22 Novembro, Quinta-feira

    Tempo Temperatura Precipitação Vento Pressão Humidade
    00:00 -5°C° 0 mm 2 m/s 744 mmHg 92%
    01:00 -5°C° 0 mm 2 m/s 744 mmHg 92%
    02:00 -5°C° 0 mm 2 m/s 744 mmHg 92%
    03:00 -6°C° 0 mm 2 m/s 744 mmHg 92%
    04:00 -6°C° 0 mm 2 m/s 744 mmHg 93%
    05:00 -6°C° 0 mm 2 m/s 743 mmHg 93%
    06:00 -6°C° 0 mm 2 m/s 744 mmHg 93%
    07:00 -6°C° 0 mm 2 m/s 744 mmHg 94%
    08:00 -6°C° 0 mm 2 m/s 744 mmHg 94%
    09:00 -5°C° 0 mm 2 m/s 744 mmHg 89%
    10:00 -4°C° 0 mm 2 m/s 744 mmHg 85%
    11:00 -3°C° 0 mm 2 m/s 744 mmHg 80%
    12:00 -3°C° 0 mm 2 m/s 744 mmHg 78%
    13:00 -2°C° 0 mm 2 m/s 744 mmHg 76%
    14:00 -2°C° 0 mm 2 m/s 744 mmHg 74%
    15:00 -1°C° 0 mm 1 m/s 744 mmHg 78%
    16:00 -2°C° 0 mm 1 m/s 744 mmHg 81%
    17:00 -2°C° 0 mm 1 m/s 744 mmHg 85%
    18:00 -3°C° 0 mm 1 m/s 744 mmHg 86%
    19:00 -3°C° 0 mm 1 m/s 744 mmHg 86%
    20:00 -3°C° 0 mm 1 m/s 744 mmHg 87%
    21:00 -3°C° 0 mm 1 m/s 744 mmHg 86%
    22:00 -3°C° 0 mm 1 m/s 744 mmHg 86%
    23:00 -3°C° 0 mm 1 m/s 745 mmHg 86%

    23 Novembro, Sexta-feira

    Tempo Temperatura Precipitação Vento Pressão Humidade
    00:00 -5°C° 0 mm 2 m/s 745 mmHg 85%
    01:00 -5°C° 0 mm 2 m/s 745 mmHg 85%
    02:00 -5°C° 0 mm 2 m/s 745 mmHg 85%
    03:00 -6°C° 0 mm 2 m/s 745 mmHg 85%
    04:00 -6°C° 0 mm 2 m/s 745 mmHg 85%
    05:00 -6°C° 0 mm 2 m/s 745 mmHg 85%
    06:00 -6°C° 0 mm 2 m/s 745 mmHg 85%
    07:00 -6°C° 0 mm 2 m/s 746 mmHg 85%
    08:00 -6°C° 0 mm 2 m/s 746 mmHg 85%
    09:00 -5°C° 0 mm 2 m/s 746 mmHg 80%
    10:00 -4°C° 0 mm 2 m/s 747 mmHg 74%
    11:00 -2°C° 0 mm 2 m/s 747 mmHg 69%
    12:00 0°C° 0 mm 1 m/s 747 mmHg 67%
    13:00 +1°C° 0 mm 1 m/s 747 mmHg 65%
    14:00 +1°C° 0 mm 1 m/s 747 mmHg 63%
    15:00 0°C° 0 mm 1 m/s 747 mmHg 68%
    16:00 -1°C° 0 mm 1 m/s 747 mmHg 73%
    17:00 -2°C° 0 mm 1 m/s 747 mmHg 78%
    18:00 -2°C° 0 mm 1 m/s 747 mmHg 80%
    19:00 -3°C° 0 mm 1 m/s 747 mmHg 82%
    20:00 -3°C° 0 mm 1 m/s 747 mmHg 84%
    21:00 -5°C° 0 mm 2 m/s 747 mmHg 85%
    22:00 -5°C° 0 mm 2 m/s 747 mmHg 87%
    23:00 -6°C° 0 mm 2 m/s 747 mmHg 88%

    24 Novembro, Sábado

    Tempo Temperatura Precipitação Vento Pressão Humidade
    00:00 -6°C° 0 mm 2 m/s 747 mmHg 89%
    01:00 -6°C° 0 mm 2 m/s 747 mmHg 90%
    02:00 -6°C° 0 mm 2 m/s 746 mmHg 90%
    03:00 -7°C° 0 mm 2 m/s 746 mmHg 90%
    04:00 -7°C° 0 mm 2 m/s 746 mmHg 90%
    05:00 -7°C° 0 mm 2 m/s 745 mmHg 89%
    06:00 -7°C° 0 mm 2 m/s 745 mmHg 88%
    07:00 -7°C° 0 mm 2 m/s 745 mmHg 87%
    08:00 -7°C° 0 mm 2 m/s 745 mmHg 86%
    09:00 -6°C° 0 mm 2 m/s 745 mmHg 79%
    10:00 -6°C° 0 mm 3 m/s 745 mmHg 72%
    11:00 -4°C° 0 mm 3 m/s 745 mmHg 65%
    12:00 -4°C° 0 mm 3 m/s 744 mmHg 64%
    13:00 -2°C° 0 mm 3 m/s 744 mmHg 63%
    14:00 -2°C° 0 mm 3 m/s 743 mmHg 62%
    15:00 -4°C° 0 mm 3 m/s 743 mmHg 67%
    16:00 -5°C° 0 mm 3 m/s 743 mmHg 72%
    17:00 -6°C° 0 mm 3 m/s 742 mmHg 78%
    18:00 -6°C° 0 mm 3 m/s 742 mmHg 77%
    19:00 -6°C° 0 mm 3 m/s 742 mmHg 77%
    20:00 -6°C° 0 mm 3 m/s 742 mmHg 77%
    21:00 -7°C° 0 mm 3 m/s 742 mmHg 77%
    22:00 -7°C° 0 mm 3 m/s 741 mmHg 78%
    23:00 -7°C° 0 mm 3 m/s 741 mmHg 78%
    Mostrar mais